UAL2642 KMKE-KCLE

Flight info

Callsign UAL2642
Flight time 0h 55m
Altitude 37000
Route UECKR6 SAMPL
Aircraft A319/M-SDE3FGHIRWY/LB1

Departure

Time 2026-04-26 13:35
Airport General Mitchell International Airport (KMKE)

Arrival

Time 2026-04-26 14:30
Airport Cleveland Hopkins International Airport (KCLE)
Time Latitude Longitude Altitude Speed Heading
2026-04-26 13:06 42.94950 -87.90065 688 ft 0 kts 316°
2026-04-26 13:06 42.94950 -87.90064 688 ft 0 kts 316°
2026-04-26 13:16 42.94950 -87.90065 688 ft 0 kts 316°
2026-04-26 13:25 42.94946 -87.90059 680 ft 2 kts 316°
2026-04-26 13:26 42.94932 -87.90041 688 ft 3 kts 316°
2026-04-26 13:26 42.94917 -87.90022 683 ft 3 kts 315°
2026-04-26 13:26 42.94905 -87.90006 682 ft 3 kts 351°
2026-04-26 13:26 42.94888 -87.90005 686 ft 2 kts
2026-04-26 13:27 42.94883 -87.90005 686 ft 4 kts
2026-04-26 13:29 42.94887 -87.90005 686 ft 4 kts
2026-04-26 13:29 42.94926 -87.89960 688 ft 10 kts 31°
2026-04-26 13:30 42.94972 -87.89892 688 ft 8 kts 72°
2026-04-26 13:30 42.94976 -87.89876 688 ft 1 kts 72°
2026-04-26 13:30 42.94978 -87.89870 684 ft 0 kts 72°
2026-04-26 13:30 42.94980 -87.89858 687 ft 3 kts 72°
2026-04-26 13:31 42.94990 -87.89799 688 ft 12 kts 89°
2026-04-26 13:31 42.94928 -87.89714 684 ft 14 kts 158°
2026-04-26 13:31 42.94821 -87.89708 686 ft 17 kts 184°
2026-04-26 13:31 42.94697 -87.89730 687 ft 19 kts 191°
2026-04-26 13:32 42.94577 -87.89809 687 ft 20 kts 237°
2026-04-26 13:32 42.94516 -87.89963 684 ft 15 kts 222°
2026-04-26 13:32 42.94442 -87.90051 682 ft 16 kts 250°
2026-04-26 13:32 42.94407 -87.90208 688 ft 18 kts 252°
2026-04-26 13:33 42.94364 -87.90382 688 ft 20 kts 251°
2026-04-26 13:33 42.94317 -87.90574 688 ft 22 kts 251°
2026-04-26 13:33 42.94265 -87.90785 688 ft 24 kts 251°
2026-04-26 13:33 42.94209 -87.91013 685 ft 26 kts 251°
2026-04-26 13:34 42.94151 -87.91253 686 ft 27 kts 252°
2026-04-26 13:34 42.94090 -87.91508 688 ft 29 kts 252°
2026-04-26 13:34 42.94030 -87.91758 688 ft 20 kts 246°
2026-04-26 13:34 42.93951 -87.91780 685 ft 19 kts 159°
2026-04-26 13:35 42.93965 -87.91544 688 ft 35 kts 72°
2026-04-26 13:35 42.94106 -87.90958 686 ft 94 kts 71°
2026-04-26 13:35 42.94373 -87.89869 694 ft 146 kts 72°
2026-04-26 13:35 42.94688 -87.88634 1488 ft 124 kts 71°
2026-04-26 13:36 42.94956 -87.87521 1972 ft 129 kts 75°
2026-04-26 13:36 42.95235 -87.86335 2359 ft 133 kts 73°
2026-04-26 13:36 42.95551 -87.85010 2512 ft 161 kts 74°
2026-04-26 13:36 42.95736 -87.83431 2930 ft 177 kts 90°
2026-04-26 13:37 42.95639 -87.81680 3399 ft 195 kts 97°
2026-04-26 13:37 42.95244 -87.79798 3861 ft 219 kts 115°
2026-04-26 13:37 42.94336 -87.77981 4359 ft 244 kts 133°
2026-04-26 13:37 42.92952 -87.76558 5202 ft 255 kts 151°
2026-04-26 13:38 42.91262 -87.75780 6165 ft 261 kts 169°
2026-04-26 13:38 42.89434 -87.75787 7107 ft 266 kts 187°
2026-04-26 13:38 42.87617 -87.76179 8010 ft 270 kts 185°
2026-04-26 13:38 42.85729 -87.76174 8872 ft 274 kts 172°
2026-04-26 13:39 42.83867 -87.75555 9741 ft 278 kts 160°
2026-04-26 13:39 42.82088 -87.74479 10566 ft 283 kts 152°
2026-04-26 13:39 42.80330 -87.73046 10892 ft 306 kts 149°
2026-04-26 13:39 42.78458 -87.71522 11385 ft 319 kts 150°
2026-04-26 13:40 42.76521 -87.69985 12087 ft 325 kts 150°
2026-04-26 13:40 42.74579 -87.68454 12819 ft 329 kts 151°
2026-04-26 13:40 42.72584 -87.66880 13567 ft 334 kts 151°
2026-04-26 13:40 42.70528 -87.65381 14255 ft 337 kts 158°
2026-04-26 13:41 42.68283 -87.64431 14908 ft 339 kts 170°
2026-04-26 13:41 42.65933 -87.64100 15582 ft 341 kts 179°
2026-04-26 13:41 42.63556 -87.63932 16269 ft 343 kts 179°
2026-04-26 13:41 42.61164 -87.63760 16956 ft 346 kts 179°
2026-04-26 13:42 42.58751 -87.63582 17618 ft 349 kts 179°
2026-04-26 13:42 42.56316 -87.63401 18300 ft 352 kts 179°
2026-04-26 13:42 42.53901 -87.63222 18875 ft 354 kts 179°
2026-04-26 13:42 42.51427 -87.63037 19433 ft 358 kts 179°
2026-04-26 13:43 42.48930 -87.62841 20009 ft 361 kts 179°
2026-04-26 13:43 42.46413 -87.62640 20575 ft 364 kts 179°
2026-04-26 13:43 42.43869 -87.62436 21132 ft 367 kts 180°
2026-04-26 13:43 42.41320 -87.62603 21674 ft 367 kts 191°
2026-04-26 13:44 42.38788 -87.63138 22221 ft 370 kts 192°
2026-04-26 13:44 42.36266 -87.63680 22739 ft 374 kts 192°
2026-04-26 13:44 42.33669 -87.64115 23255 ft 380 kts 185°
2026-04-26 13:44 42.31010 -87.63927 23771 ft 388 kts 174°
2026-04-26 13:45 42.28372 -87.63015 24207 ft 396 kts 163°
2026-04-26 13:45 42.25803 -87.61596 24633 ft 401 kts 161°
2026-04-26 13:45 42.23215 -87.60154 25029 ft 405 kts 161°
2026-04-26 13:45 42.20599 -87.58707 25431 ft 408 kts 161°
2026-04-26 13:46 42.17957 -87.57254 25833 ft 412 kts 161°
2026-04-26 13:46 42.15293 -87.55793 26203 ft 416 kts 161°
2026-04-26 13:46 42.12638 -87.54337 26576 ft 420 kts 161°
2026-04-26 13:46 42.09920 -87.52848 26962 ft 423 kts 161°
2026-04-26 13:47 42.07178 -87.51344 27334 ft 427 kts 161°
2026-04-26 13:47 42.04454 -87.49707 27703 ft 433 kts 154°
2026-04-26 13:47 42.01956 -87.47388 28068 ft 441 kts 141°
2026-04-26 13:47 41.99841 -87.44376 28436 ft 447 kts 128°
2026-04-26 13:48 41.98218 -87.40796 28812 ft 452 kts 115°
2026-04-26 13:48 41.97180 -87.36860 29191 ft 455 kts 103°
2026-04-26 13:48 41.96691 -87.32649 29577 ft 458 kts 96°
2026-04-26 13:48 41.96306 -87.28386 29960 ft 461 kts 96°
2026-04-26 13:49 41.95914 -87.24094 30318 ft 464 kts 96°
2026-04-26 13:49 41.95519 -87.19776 30636 ft 467 kts 96°
2026-04-26 13:49 41.95121 -87.15443 30940 ft 469 kts 95°
2026-04-26 13:49 41.94717 -87.11079 31271 ft 471 kts 95°
2026-04-26 13:50 41.94312 -87.06764 31579 ft 473 kts 95°
2026-04-26 13:50 41.93900 -87.02372 31875 ft 476 kts 95°
2026-04-26 13:50 41.93486 -86.97948 32171 ft 478 kts 95°
2026-04-26 13:50 41.93070 -86.93513 32503 ft 479 kts 95°
2026-04-26 13:51 41.92653 -86.89093 33005 ft 476 kts 95°
2026-04-26 13:51 41.92234 -86.84691 33479 ft 474 kts 95°
2026-04-26 13:51 41.91813 -86.80297 33925 ft 473 kts 95°
2026-04-26 13:51 41.91393 -86.75920 34326 ft 473 kts 95°
2026-04-26 13:52 41.90979 -86.71607 34676 ft 472 kts 95°
2026-04-26 13:52 41.90559 -86.67229 35010 ft 473 kts 95°
2026-04-26 13:52 41.90138 -86.62855 35327 ft 473 kts 95°
2026-04-26 13:52 41.89715 -86.58478 35646 ft 473 kts 95°
2026-04-26 13:53 41.89286 -86.54102 35983 ft 473 kts 95°
2026-04-26 13:53 41.88856 -86.49730 36354 ft 471 kts 96°
2026-04-26 13:53 41.88424 -86.45373 36674 ft 471 kts 96°
2026-04-26 13:53 41.87993 -86.41016 36967 ft 471 kts 96°
2026-04-26 13:54 41.87561 -86.36656 37147 ft 472 kts 96°
2026-04-26 13:54 41.86690 -86.28021 37178 ft 469 kts 96°
2026-04-26 13:55 41.85525 -86.16488 37181 ft 468 kts 96°
2026-04-26 13:56 41.84065 -86.02065 37173 ft 468 kts 96°
2026-04-26 13:56 41.83181 -85.93492 37173 ft 468 kts 96°
2026-04-26 13:57 41.82283 -85.84847 37171 ft 468 kts 96°
2026-04-26 13:57 41.81384 -85.76215 37183 ft 468 kts 96°
2026-04-26 13:58 41.80481 -85.67648 37184 ft 467 kts 96°
2026-04-26 13:58 41.79565 -85.59022 37186 ft 467 kts 96°
2026-04-26 13:59 41.78645 -85.50396 37188 ft 467 kts 96°
2026-04-26 13:59 41.77712 -85.41782 37195 ft 468 kts 96°
2026-04-26 14:00 41.75843 -85.24586 37179 ft 468 kts 96°
2026-04-26 14:01 41.74898 -85.15964 37180 ft 468 kts 96°
2026-04-26 14:01 41.73952 -85.07347 37182 ft 468 kts 96°
2026-04-26 14:02 41.72993 -84.98781 37191 ft 468 kts 96°
2026-04-26 14:02 41.72024 -84.90174 37165 ft 468 kts 96°
2026-04-26 14:02 41.71536 -84.85869 36901 ft 467 kts 96°
2026-04-26 14:03 41.71051 -84.81587 36525 ft 464 kts 96°
2026-04-26 14:03 41.70567 -84.77328 36058 ft 463 kts 97°
2026-04-26 14:03 41.70082 -84.73086 35597 ft 460 kts 97°
2026-04-26 14:03 41.69595 -84.68856 35131 ft 458 kts 97°
2026-04-26 14:04 41.69119 -84.64713 34661 ft 456 kts 97°
2026-04-26 14:04 41.68638 -84.60534 34175 ft 454 kts 97°
2026-04-26 14:04 41.68157 -84.56373 33647 ft 451 kts 97°
2026-04-26 14:04 41.67677 -84.52250 33173 ft 447 kts 97°
2026-04-26 14:05 41.67201 -84.48161 32695 ft 443 kts 97°
2026-04-26 14:05 41.66730 -84.44103 32220 ft 439 kts 97°
2026-04-26 14:05 41.66265 -84.40083 31759 ft 436 kts 97°
2026-04-26 14:05 41.65806 -84.36147 31312 ft 432 kts 98°
2026-04-26 14:06 41.65342 -84.32195 30874 ft 429 kts 98°
2026-04-26 14:06 41.64878 -84.28274 30437 ft 426 kts 98°
2026-04-26 14:06 41.64418 -84.24378 29965 ft 422 kts 98°
2026-04-26 14:06 41.63963 -84.20533 29550 ft 417 kts 98°
2026-04-26 14:07 41.63508 -84.16726 29139 ft 412 kts 99°
2026-04-26 14:07 41.63055 -84.12969 28746 ft 408 kts 99°
2026-04-26 14:07 41.62605 -84.09249 28352 ft 404 kts 99°
2026-04-26 14:07 41.62167 -84.05610 27956 ft 401 kts 99°
2026-04-26 14:08 41.61729 -84.01948 27569 ft 398 kts 99°
2026-04-26 14:08 41.61293 -83.98314 27171 ft 395 kts 99°
2026-04-26 14:08 41.60858 -83.94705 26775 ft 392 kts 99°
2026-04-26 14:08 41.60424 -83.91121 26380 ft 390 kts 99°
2026-04-26 14:09 41.59989 -83.87557 25965 ft 388 kts 99°
2026-04-26 14:09 41.59552 -83.84011 25556 ft 385 kts 99°
2026-04-26 14:09 41.59117 -83.80488 25141 ft 383 kts 99°
2026-04-26 14:09 41.58691 -83.77026 24717 ft 382 kts 99°
2026-04-26 14:10 41.58261 -83.73537 24298 ft 380 kts 99°
2026-04-26 14:10 41.57831 -83.70060 23869 ft 379 kts 99°
2026-04-26 14:10 41.57402 -83.66587 23391 ft 377 kts 99°
2026-04-26 14:10 41.56976 -83.63157 22983 ft 373 kts 99°
2026-04-26 14:11 41.56128 -83.56381 22137 ft 367 kts 99°
2026-04-26 14:11 41.55715 -83.53085 21726 ft 363 kts 99°
2026-04-26 14:11 41.55302 -83.49772 21309 ft 361 kts 99°
2026-04-26 14:12 41.54895 -83.46483 20893 ft 358 kts 99°
2026-04-26 14:12 41.54485 -83.43216 20462 ft 356 kts 99°
2026-04-26 14:12 41.54074 -83.39969 20053 ft 353 kts 99°
2026-04-26 14:12 41.53665 -83.36747 19640 ft 352 kts 99°
2026-04-26 14:13 41.52846 -83.30331 18701 ft 353 kts 99°
2026-04-26 14:13 41.52433 -83.27103 18223 ft 352 kts 99°
2026-04-26 14:13 41.52028 -83.23938 17811 ft 349 kts 99°
2026-04-26 14:14 41.51621 -83.20756 17412 ft 346 kts 99°
2026-04-26 14:14 41.51217 -83.17603 16993 ft 343 kts 99°
2026-04-26 14:14 41.50815 -83.14479 16602 ft 340 kts 99°
2026-04-26 14:14 41.50417 -83.11379 16203 ft 338 kts 98°
2026-04-26 14:15 41.50022 -83.08304 15811 ft 335 kts 98°
2026-04-26 14:15 41.49628 -83.05246 15427 ft 333 kts 98°
2026-04-26 14:15 41.49235 -83.02213 15041 ft 331 kts 98°
2026-04-26 14:15 41.48847 -82.99240 14662 ft 329 kts 98°
2026-04-26 14:16 41.48455 -82.96237 14280 ft 328 kts 98°
2026-04-26 14:16 41.48063 -82.93254 13891 ft 326 kts 98°
2026-04-26 14:16 41.47566 -82.90317 13473 ft 325 kts 107°
2026-04-26 14:16 41.46617 -82.87579 13054 ft 325 kts 117°
2026-04-26 14:17 41.45536 -82.84948 12641 ft 323 kts 120°
2026-04-26 14:17 41.44319 -82.82430 12219 ft 323 kts 122°
2026-04-26 14:17 41.43071 -82.79947 11783 ft 322 kts 122°
2026-04-26 14:17 41.41838 -82.77515 11376 ft 321 kts 122°
2026-04-26 14:18 41.40580 -82.75063 10961 ft 320 kts 122°
2026-04-26 14:18 41.39330 -82.72624 10545 ft 319 kts 122°
2026-04-26 14:18 41.38082 -82.70190 10143 ft 317 kts 122°
2026-04-26 14:18 41.36838 -82.67774 9692 ft 316 kts 122°
2026-04-26 14:19 41.35605 -82.65367 9260 ft 314 kts 122°
2026-04-26 14:19 41.34371 -82.62978 8829 ft 313 kts 122°
2026-04-26 14:19 41.33132 -82.60609 8407 ft 311 kts 122°
2026-04-26 14:19 41.31911 -82.58264 7973 ft 304 kts 122°
2026-04-26 14:20 41.30728 -82.55992 7551 ft 294 kts 122°
2026-04-26 14:20 41.29593 -82.53829 7146 ft 286 kts 122°
2026-04-26 14:20 41.28460 -82.51686 6740 ft 281 kts 122°
2026-04-26 14:20 41.27339 -82.49570 6317 ft 278 kts 122°
2026-04-26 14:21 41.26229 -82.47480 5890 ft 275 kts 122°
2026-04-26 14:21 41.25128 -82.45413 5468 ft 272 kts 122°
2026-04-26 14:21 41.24100 -82.43332 5050 ft 266 kts 111°
2026-04-26 14:21 41.23754 -82.40980 4629 ft 261 kts 87°
2026-04-26 14:22 41.23897 -82.38593 4305 ft 254 kts 82°
2026-04-26 14:22 41.24065 -82.36596 4079 ft 243 kts 82°
2026-04-26 14:22 41.24258 -82.34423 3828 ft 231 kts 82°
2026-04-26 14:22 41.24451 -82.32362 3578 ft 219 kts 82°
2026-04-26 14:23 41.24642 -82.30397 3319 ft 211 kts 82°
2026-04-26 14:23 41.24833 -82.28484 3091 ft 207 kts 82°
2026-04-26 14:23 41.25020 -82.26588 3040 ft 207 kts 82°
2026-04-26 14:23 41.25337 -82.24726 3048 ft 206 kts 69°
2026-04-26 14:24 41.25913 -82.22977 3041 ft 208 kts 65°
2026-04-26 14:24 41.26521 -82.21243 3028 ft 206 kts 65°
2026-04-26 14:24 41.27119 -82.19533 3032 ft 207 kts 65°
2026-04-26 14:24 41.27635 -82.17750 3032 ft 207 kts 77°
2026-04-26 14:25 41.27872 -82.15873 3040 ft 206 kts 81°
2026-04-26 14:25 41.28062 -82.13985 3039 ft 206 kts 82°
2026-04-26 14:25 41.28246 -82.12094 3035 ft 207 kts 82°
2026-04-26 14:25 41.28427 -82.10191 3037 ft 207 kts 82°
2026-04-26 14:26 41.28608 -82.08295 3039 ft 207 kts 81°
2026-04-26 14:26 41.29006 -82.06467 3037 ft 207 kts 66°
2026-04-26 14:26 41.29650 -82.04789 3038 ft 207 kts 60°
2026-04-26 14:26 41.30479 -82.03231 3039 ft 206 kts 54°
2026-04-26 14:27 41.31337 -82.01695 3035 ft 206 kts 53°
2026-04-26 14:27 41.32200 -82.00163 3036 ft 207 kts 53°
2026-04-26 14:27 41.33059 -81.98638 3012 ft 206 kts 54°
2026-04-26 14:27 41.33902 -81.97079 2739 ft 207 kts 54°
2026-04-26 14:28 41.34765 -81.95614 2455 ft 197 kts 51°
2026-04-26 14:28 41.35587 -81.94298 2189 ft 169 kts 50°
2026-04-26 14:28 41.36270 -81.93217 1968 ft 143 kts 50°
2026-04-26 14:28 41.36872 -81.92268 1778 ft 128 kts 51°
2026-04-26 14:29 41.37429 -81.91389 1595 ft 122 kts 50°
2026-04-26 14:29 41.37976 -81.90518 1430 ft 121 kts 50°
2026-04-26 14:29 41.38522 -81.89654 1273 ft 122 kts 50°
2026-04-26 14:29 41.39076 -81.88797 1094 ft 122 kts 49°
2026-04-26 14:30 41.39620 -81.87941 909 ft 121 kts 50°
2026-04-26 14:30 41.40160 -81.87082 784 ft 120 kts 48°
2026-04-26 14:30 41.40603 -81.86384 765 ft 69 kts 50°
2026-04-26 14:30 41.40732 -81.86170 765 ft 9 kts 51°
2026-04-26 14:31 41.40792 -81.86071 765 ft 21 kts 53°
2026-04-26 14:31 41.40833 -81.85858 764 ft 27 kts 85°
2026-04-26 14:31 41.40933 -81.85629 764 ft 32 kts 48°
2026-04-26 14:31 41.41088 -81.85384 764 ft 38 kts 50°
2026-04-26 14:32 41.41241 -81.85142 764 ft 26 kts 50°
2026-04-26 14:32 41.41322 -81.84976 764 ft 16 kts 94°
2026-04-26 14:32 41.41239 -81.84862 764 ft 19 kts 142°
2026-04-26 14:32 41.41129 -81.84745 765 ft 22 kts 141°
2026-04-26 14:33 41.41071 -81.84584 764 ft 21 kts 134°
2026-04-26 14:33 41.40950 -81.84452 764 ft 24 kts 140°
2026-04-26 14:33 41.40839 -81.84295 764 ft 14 kts 128°
2026-04-26 14:33 41.40793 -81.84244 764 ft 1 kts 148°
2026-04-26 14:34 41.40792 -81.84244 764 ft 0 kts 148°